Location: Bempflingen
(48.5731°N, 9.2657°E)
Time: 10:01:07
(UTC+00:00)

Daily predictions for brighter satellites

Satellite Brightness Start Highest point End
(mag) Time Altitude Azimuth Time Altitude Azimuth Time Altitude Azimuth
Cosmos 2181 Rocket 4.0 18:40:01 10° S 18:46:11 74° E 18:52:29 10° NNE
Cosmos 1992 Rocket 4.0 18:43:38 10° S 18:48:46 64° ESE 18:53:57 10° NNE
CZ-4C R/B 4.0 18:43:05 10° NW 18:48:48 31° NNE 18:55:41 10° E
MOS 1-B 4.4 18:43:19 10° SSE 18:49:04 66° ENE 18:54:50 10° N
SPOT 5 4.4 18:48:00 10° ESE 18:52:07 23° ENE 18:56:10 10° N
Cosmos 2297 Rocket 3.4 18:48:38 10° NNW 18:53:27 28° NE 18:58:15 10° ESE
Cosmos 2369 Rocket 3.3 18:51:49 10° SW 18:57:19 50° NW 19:02:49 10° NNE
Meteor 1-11 4.3 18:54:41 10° N 19:00:24 78° ENE 19:06:07 10° SSE
BlueWalker 3 3.1 18:57:56 10° S 19:01:00 23° SE 19:04:05 10° E
Terra 3.7 19:02:05 10° E 19:04:52 16° ENE 19:07:39 10° NNE
ATLAS 5 CENTAUR R/B 0.9 19:02:02 10° SW 19:05:22 80° SE 19:09:05 10° NE
PSLV R/B 3.6 19:04:10 10° SSE 19:07:52 75° ENE 19:11:40 10° N
Cosmos 2098 Rocket 2.9 19:03:18 10° S 19:08:04 78° E 19:11:56 10° NNE
CARTOSAT-1 3.5 19:04:21 10° SSE 19:08:34 68° ENE 19:12:51 10° N
Cosmos 1455 3.8 19:07:05 10° SW 19:10:24 36° WNW 19:13:45 10° N
Sich 1 Rocket 4.4 19:06:35 10° SSE 19:10:29 32° E 19:14:27 10° NNE
Okean 1 Rocket 4.4 19:07:17 10° SE 19:10:37 21° E 19:13:57 10° NE
Cosmos 1932 4.5 19:09:17 10° NW 19:15:35 79° NE 19:21:31 11° SE
Okean-O 3.0 19:11:26 10° SE 19:15:38 46° ENE 19:19:53 10° N
Cosmos 1975 Rocket 3.7 19:11:32 10° NNW 19:15:47 56° W 19:20:00 10° S
CZ-4B R/B 3.7 19:12:11 10° S 19:17:46 67° WSW 19:23:20 10° NNW
Cosmos 2263 Rocket 4.3 19:16:39 10° N 19:19:28 14° NNE 19:22:16 10° ENE
Ariane Rocket 4.5 19:16:22 11° ESE 19:19:47 21° ENE 19:23:30 10° NNE
CZ-4C R/B 3.7 19:18:24 10° NNE 19:21:30 31° E 19:24:33 10° SSE
Nadezhda 3 Rocket 4.0 19:16:18 10° S 19:22:22 65° E 19:28:30 10° NNE
Cosmos 1821 Rocket 4.1 19:17:09 10° NNW 19:23:21 79° W 19:29:25 10° S
SL-27 R/B 3.5 19:21:31 10° NW 19:24:12 35° WSW 19:26:50 10° S
Genesis I 3.3 19:20:44 10° NNW 19:24:18 53° NE 19:26:55 17° ESE
USA 186 2.9 19:21:28 10° S 19:24:21 40° W 19:27:13 10° NNW
Cosmos 44 4.5 19:20:44 10° SSE 19:25:02 25° ESE 19:29:20 10° ENE
BREEZE-M R/B 1.6 19:23:25 10° WNW 19:26:03 83° NNE 19:27:40 19° E
USA 267 3.5 19:20:02 10° NE 19:26:36 78° NNW 19:33:08 10° WSW
Okean O Rocket 1.9 19:26:06 10° S 19:30:25 68° WSW 19:34:49 10° NNW
Cosmos 1486 Rocket 4.3 19:30:04 10° NNW 19:35:14 65° WSW 19:40:21 10° S
CZ-4 R/B 3.6 19:32:28 10° SSW 19:35:42 24° W 19:38:54 10° NW
Cosmos 1536 Rocket 3.5 19:37:30 10° N 19:41:56 77° E 19:45:50 13° SSE
SJ 16-02 4.1 19:40:41 10° WNW 19:42:54 14° W 19:45:06 10° SW
Resurs 01 Rocket 2.6 19:41:00 10° S 19:45:15 47° W 19:49:33 10° NNW
IRS-1C Rocket 4.2 19:42:38 16° SSE 19:46:45 61° ENE 19:51:58 10° N
MOS 1 4.3 19:43:33 12° SSE 19:48:51 82° ENE 19:54:35 10° NNW
CENTAUR R/B 4.0 19:42:51 10° NW 19:50:06 40° NNE 19:57:39 13° E
NOSS 3-1 (A) 3.1 19:46:54 10° SW 19:51:54 88° NW 19:57:59 10° NE
ERS-1 Rocket 3.4 19:51:26 22° SE 19:54:22 46° ENE 19:59:10 10° N
SPOT 3 Rocket 4.3 19:55:09 22° ESE 19:57:49 37° ENE 20:02:33 10° N
Tiangong 0.0 19:56:17 10° SSW 19:57:17 15° SSW 19:57:17 15° SSW
USA 229 DEB 3.7 19:55:02 10° S 20:00:49 47° ESE 20:07:10 10° NE
Cosmos 1934 Rocket 4.0 19:54:38 10° N 20:00:49 89° ENE 20:06:25 13° S
USA 229 3.7 19:55:08 10° S 20:00:55 46° ESE 20:07:16 10° NE
Cosmos 2151 Rocket 3.7 19:58:15 10° SSW 20:02:38 74° W 20:07:06 10° N
Cosmos 1339 Rocket 4.4 19:56:32 10° S 20:02:40 80° E 20:08:46 10° N
USA 234 4.0 19:58:35 16° SSE 20:03:38 44° SW 20:09:52 10° WNW
USA 281 3.5 19:59:01 12° SSE 20:05:03 65° WSW 20:11:37 10° NNW
ATLAS CENTAUR R/B 2.6 20:05:15 10° NNW 20:08:31 27° NE 20:09:58 21° ENE
Cosmos 2227 Rocket 2.7 20:04:01 10° NNW 20:09:32 49° NE 20:12:21 27° ESE
Cosmos 1980 Rocket 3.9 20:13:32 15° E 20:13:32 15° E 20:15:32 10° ENE
Iridium 2 3.6 20:10:12 10° NNW 20:13:06 55° W 20:14:17 30° SSW
Cosmos 1892 Rocket 3.8 20:12:40 10° N 20:16:54 51° ENE 20:18:10 38° SE
SL-4 R/B 1.6 20:13:26 10° WNW 20:17:01 73° NNE 20:17:57 45° E
Cosmos 371 Rocket 4.2 20:13:10 10° NW 20:17:43 44° WSW 20:21:07 17° S
Landsat 4 3.4 20:17:01 40° S 20:18:10 85° WSW 20:21:43 10° NNW
MetOp-B 4.3 20:15:38 19° S 20:19:29 73° WSW 20:24:52 10° NNW
Cosmos 1697 Rocket 3.2 20:18:57 30° SE 20:20:38 37° ESE 20:25:48 10° NE
Cosmos 304 Rocket 4.4 20:16:58 10° NNW 20:21:36 50° WSW 20:24:31 21° S
Cosmos 2360 4.3 20:17:18 16° S 20:21:43 50° ESE 20:27:13 10° NE
Okean 2 Rocket 4.0 20:20:24 10° SSW 20:24:46 48° WNW 20:29:09 10° N
COSMOS 2455 2.8 20:18:59 10° NW 20:25:04 86° ENE 20:27:59 33° SE
ATLAS 3B R/B 3.4 20:18:54 10° WSW 20:26:01 62° NW 20:33:38 10° NE
SPOT 5 3.4 20:26:04 20° S 20:29:43 62° W 20:34:55 10° NNW
MetOp-A 4.1 20:30:40 34° ENE 20:30:54 34° ENE 20:34:22 10° N
NOSS 8 (H) 4.4 20:27:58 10° NW 20:31:05 76° NE 20:31:30 65° ESE
NOSS 8 (E) 4.4 20:28:24 10° NW 20:31:33 77° SW 20:31:59 64° SSE
Cosmos 405 Rocket 2.6 20:33:26 60° ESE 20:33:33 60° E 20:37:14 10° NNE
Cosmos 1898 Rocket 4.0 20:29:28 10° NNW 20:34:31 44° ENE 20:36:04 35° ESE
Cosmos 2297 Rocket 2.4 20:32:20 10° NNW 20:37:56 64° WSW 20:40:35 31° S
CZ-4C R/B 3.0 20:31:17 10° NW 20:38:17 77° NE 20:42:37 32° SE
Spot 2 Rocket 3.4 20:36:25 38° SSE 20:38:23 85° ENE 20:43:28 10° NNW
BlueWalker 3 1.9 20:35:05 10° WSW 20:38:54 81° NNW 20:40:37 32° ENE
USA 81 4.3 20:38:46 41° SE 20:39:54 48° E 20:44:57 10° NNE
ARIANE 5 R/B 4.4 20:39:49 18° ENE 20:40:21 19° ENE 20:43:29 10° NNE
Terra 1.8 20:40:08 40° S 20:41:51 82° WSW 20:46:36 10° NNW
Cosmos 1656 3.9 20:38:17 10° SW 20:43:49 68° WNW 20:49:19 10° NNE
Cosmos 1455 Rocket 2.9 20:46:45 53° S 20:47:44 81° E 20:52:09 10° NNE
Okean 1 Rocket 4.1 20:43:59 11° SSW 20:48:08 44° WNW 20:52:26 10° N
Spot 1 4.1 20:43:54 10° NNE 20:48:31 63° ESE 20:49:02 58° SE
Iridium 4 Rocket 4.4 20:44:01 13° SSW 20:48:57 54° W 20:54:41 10° N
USA 245 4.2 20:46:54 30° S 20:49:15 58° WSW 20:53:35 10° NNW
ATLAS 5 CENTAUR R/B 4.0 20:47:15 10° WNW 20:49:50 18° NNW 20:52:42 10° NNE
Cosmos 332 Rocket 4.1 20:45:32 10° NNW 20:50:19 59° WSW 20:51:53 39° SSW
Cosmos 1459 Rocket 4.3 20:44:39 10° N 20:50:30 47° ENE 20:52:04 39° ESE
Cosmos 2219 3.4 20:47:23 10° NNW 20:52:59 59° ENE 20:54:33 43° ESE
Ariane Rocket 3.2 20:56:30 39° SSW 20:58:16 65° WSW 21:03:18 10° NNW
Cosmos 1437 Rocket 3.0 20:56:09 10° NNW 21:00:02 61° W 21:00:22 58° SW
Cosmos 1763 Rocket 3.4 20:57:45 26° SSW 21:00:41 82° WNW 21:05:52 10° NNE
Cosmos 2263 Rocket 2.6 20:59:21 10° NNW 21:04:50 50° NE 21:06:06 42° E
Cosmos 44 3.8 21:00:29 10° SW 21:05:52 67° NW 21:11:10 10° NE
USA 267 4.2 21:03:02 10° ENE 21:09:12 46° N 21:15:22 10° W
ARGOS Delta rocket 4.2 21:08:36 48° S 21:10:07 75° W 21:15:37 10° NNW
Cosmos 2082 4.0 21:05:47 10° NNW 21:11:21 54° ENE 21:12:29 46° E
Cosmos 2173 Rocket 4.0 21:09:01 10° N 21:15:25 74° E 21:17:01 52° SSE
NOSS 3-2 (A) 4.3 21:09:09 10° NW 21:16:16 62° NE 21:19:58 35° ESE
Aureole 1 Rocket 4.0 21:14:06 10° NW 21:15:56 30° WNW 21:15:56 30° WNW
Meteor 2-3 Rocket 3.8 21:13:15 10° N 21:18:53 61° ENE 21:19:41 55° ESE
Cosmos 540 Rocket 3.5 21:18:45 43° SW 21:20:25 76° WNW 21:25:34 10° NNE
Cosmos 1606 4.4 21:23:39 25° NNE 21:23:39 25° NNE 21:25:23 10° NNE
MOS 1 Rocket 3.4 21:25:22 57° WSW 21:25:28 58° W 21:29:49 10° NNW
Cosmos 2058 3.4 21:22:43 10° NNW 21:26:27 53° W 21:26:27 53° W
Meteor 2-15 4.3 21:22:47 10° N 21:28:57 75° E 21:29:58 61° SE
Cosmos 1626 Rocket 3.6 21:24:56 10° N 21:29:06 78° NNW 21:29:06 78° NNW
Cosmos 372 Rocket 3.8 21:26:31 10° NNW 21:31:47 82° WSW 21:32:09 76° SSW
Meteor 2-15 Rocket 4.5 21:26:08 10° N 21:32:13 61° ENE 21:33:02 56° ESE
Cosmos 468 Rocket 4.3 21:31:31 39° SW 21:33:19 65° WNW 21:38:32 10° NNE
Cosmos 1864 Rocket 4.4 21:28:40 10° N 21:34:51 69° ENE 21:35:41 61° SE
Cosmos 1802 Rocket 3.9 21:31:36 10° N 21:37:55 81° E 21:38:59 63° SSE
SL-16 R/B 4.2 21:41:08 15° ENE 21:41:08 15° ENE 21:42:49 10° ENE
CENTAUR R/B 3.2 21:33:30 10° NW 21:41:44 87° SW 21:44:48 48° SE
Cosmos 1869 4.4 21:43:56 39° N 21:43:56 39° N 21:46:28 10° N
Landsat 5 4.4 21:38:48 10° N 21:42:50 43° WNW 21:43:13 42° W
Cosmos 841 Rocket 3.4 21:43:35 74° ENE 21:43:35 74° ENE 21:48:21 10° NNE
Cosmos 2016 Rocket 3.8 21:39:04 10° N 21:45:12 77° E 21:45:55 68° SE
ATLAS CENTAUR R/B 2.8 21:42:48 10° NW 21:45:04 30° WNW 21:45:04 30° WNW
Intercosmos 25 4.3 21:44:15 10° NNW 21:48:13 44° WNW 21:48:13 44° WNW
Cosmos 1544 Rocket 4.0 21:49:27 57° NW 21:49:27 57° NW 21:53:18 10° N
Cosmos 1844 Rocket 4.0 21:44:18 10° NNW 21:49:08 28° NE 21:50:30 26° ENE
USA 229 DEB 4.4 21:45:41 10° WSW 21:51:45 49° NW 21:58:29 10° NE
USA 229 4.4 21:45:46 10° WSW 21:51:50 49° NW 21:58:35 10° NE
Cosmos 2100 Rocket 4.3 21:46:36 10° NNW 21:52:50 60° W 21:54:15 48° SW
H-2A R/B 3.7 21:54:16 34° N 21:54:16 34° N 21:56:37 10° N
Cosmos 2227 Rocket 3.3 21:48:25 10° NW 21:53:22 32° WSW 21:54:10 31° WSW
Cosmos 1980 Rocket 2.0 21:55:14 83° SSW 21:55:29 89° WNW 22:01:10 10° NNE
Cosmos 967 Rocket 4.4 21:53:28 10° NW 21:59:59 85° NE 22:00:44 71° SE
Cosmos 1937 Rocket 4.0 21:58:44 10° NNW 22:03:46 50° WSW 22:03:46 50° WSW
Cosmos 1697 Rocket 3.7 22:00:32 17° WSW 22:04:32 43° NW 22:09:56 10° NNE
Okean 1-7 Rocket 4.3 22:00:20 10° NNW 22:04:09 52° WNW 22:04:09 52° WNW
Cosmos 2123 Rocket 4.0 22:05:46 66° SSW 22:06:41 80° W 22:13:04 10° N
Meteor 1-27 4.2 22:10:41 74° ENE 22:10:41 74° ENE 22:15:54 10° NNE
CZ-2C R/B 4.1 22:06:42 10° NNE 22:10:47 64° N 22:10:47 64° N
Cosmos 2228 4.1 22:14:50 41° NW 22:14:50 41° NW 22:18:03 10° N
ARIANE 5 R/B 3.4 22:17:17 48° NW 22:17:17 48° NW 22:20:48 10° NNW
BlueWalker 3 4.3 22:13:50 10° WNW 22:15:06 19° WNW 22:15:06 19° WNW
Terra 4.4 22:19:08 10° W 22:20:13 11° W 22:21:17 10° WNW
CZ-4C R/B 3.9 22:20:05 10° NW 22:26:37 34° WSW 22:27:43 33° SW
Cosmos 2227 4.2 22:22:13 10° NNW 22:27:45 78° NNE 22:27:45 78° NNE
Cosmos 2369 3.8 22:27:49 65° W 22:28:09 67° WNW 22:33:49 10° NNE
Lacrosse 4 Rocket 3.6 22:33:41 20° NE 22:33:41 20° NE 22:34:58 10° NE
NOSS 3-2 (C) 4.0 22:25:10 10° NW 22:32:31 81° NE 22:34:32 56° ESE
H-2A R/B 4.2 22:29:19 10° NE 22:30:48 19° NE 22:30:48 19° NE
ALOS 2 3.7 22:35:57 43° N 22:35:57 43° N 22:39:00 10° N
Cosmos 1725 Rocket 4.4 22:28:43 10° NNW 22:34:38 49° W 22:35:10 48° WSW
Cosmos 2233 Rocket 3.9 22:29:00 10° NNW 22:35:09 70° W 22:35:19 70° WSW
Cosmos 2061 Rocket 4.3 22:35:16 10° NNW 22:41:35 58° W 22:42:00 57° WSW
Cosmos 1447 Rocket 4.3 22:42:34 82° ENE 22:42:34 82° ENE 22:48:38 10° N
Cosmos 1814 Rocket 4.4 22:45:04 59° NNE 22:45:04 59° NNE 22:49:14 10° NNE
Cosmos 1464 Rocket 4.4 22:38:28 10° N 22:44:40 50° ENE 22:44:59 50° E
Cosmos 2263 Rocket 3.5 22:43:41 10° NW 22:47:47 29° W 22:47:47 29° W
Cosmos 2360 Rocket 3.6 22:51:06 27° ENE 22:51:06 27° ENE 22:54:22 10° NE
USA 267 4.2 22:45:20 10° E 22:51:31 46° N 22:57:42 10° WNW
SL-19 R/B 4.3 22:46:18 10° NNE 22:51:47 83° NNW 22:51:47 83° NNW
Cosmos 909 Rocket 4.4 22:55:34 68° SSE 22:56:20 73° ESE 23:05:28 10° NE
Cosmos 1891 Rocket 4.4 22:53:09 10° N 22:59:17 84° ENE 22:59:17 84° ENE
Cosmos 1513 Rocket 4.4 22:53:40 10° N 22:59:38 78° ENE 22:59:38 78° ENE
Cosmos 2333 Rocket 3.5 23:03:47 29° ENE 23:03:47 29° ENE 23:07:17 10° NE
Cosmos 2322 Rocket 3.0 23:03:59 42° ENE 23:03:59 42° ENE 23:08:01 10° NE
Lacrosse 5 3.8 23:05:57 21° ENE 23:05:57 21° ENE 23:07:43 10° ENE
Cosmos 2219 Rocket 4.0 23:05:42 20° E 23:05:42 20° E 23:08:21 10° NE
Cosmos 2034 Rocket 4.4 23:00:48 10° N 23:06:48 50° ENE 23:07:00 49° E
Cosmos 1809 Rocket 4.4 23:21:05 83° NW 23:21:05 83° NW 23:27:09 10° N
SL-16 R/B 2.4 23:22:57 70° N 23:22:57 70° N 23:28:06 10° NNE
Cosmos 1844 4.0 23:18:32 10° NNW 23:23:28 65° NW 23:23:28 65° NW
CENTAUR R/B 4.3 23:25:01 10° WNW 23:31:53 28° WSW 23:31:56 28° WSW
USA 238 DEB 3.8 23:24:56 10° NW 23:32:17 82° SW 23:32:57 75° S
USA 238 3.8 23:25:02 10° NW 23:32:22 82° SW 23:33:05 74° S
Cosmos 1125 Rocket 4.4 23:28:05 10° NNW 23:31:49 43° NW 23:31:49 43° NW
Cosmos 1844 Rocket 3.3 23:27:54 10° NW 23:32:08 48° WNW 23:32:08 48° WNW
Cosmos 1980 Rocket 4.3 23:36:55 13° W 23:40:18 21° NW 23:44:32 10° N
Meteor 2-2 Rocket 4.4 23:48:58 72° ENE 23:48:58 72° ENE 23:54:33 10° NNE
Timation 2 Rocket 4.1 23:42:13 10° NNW 23:48:19 68° W 23:48:19 68° W
Cosmos 1816 Rocket 4.3 23:51:35 85° NW 23:51:35 85° NW 23:57:37 10° N
